FENGYUN 1C DEB

Satellite information

Favourite Embed

Satellite Type and Status

DEBRISIN ORBIT

Key statistics

Satellite FENGYUN 1C DEB at a glance.

Uptime

9714

Days in orbit

Revolutions

≈ 13.8

Per day

Orbit

SSO

Sun Synchronous Orbit

Inclination

99.6

Latest

Satellite identification and parameters

Extended collection of information and parameters for FENGYUN 1C DEB.

Object identification

Identified? True

Debris? True

Object name: FENGYUN 1C DEB

International designator: 1999-025CUG

Object number (NORAD): 32186

Object ID (CCSDS): 32186

Country: PEOPLES REPUBLIC OF CHINA (PRC)

Current information (Y/N): Y

RCS size: SMALL

Orbital parameters

Period: 104.613 minutes

Inclination: 99.6097 deg

SMA: 7354.469 km

Apoapsis: 1178.345 km

Periapsis: 774.322 km

RAAN: 33.8435 deg

Eccentricy: 0.02746783

Argument of periapsis: 209.4403 deg

Mean anomaly: 173.7978 deg

Mean motion: 13.76498707 rev/day

Mean motion (dot): 0.00001972 rev/day2

B* drag term: 0.0015629135 1/REarth

Two-line elements (TLE)

Creation date: Dec. 9, 2025, 5:41 p.m.

Reference frame: TEME

Reference center: EARTH

Epoch: Dec. 9, 2025, 9:24 a.m. UTC

TLE line 0: 0 FENGYUN 1C DEB

TLE line 1: 1 32186U 99025CUG 25343.39204662 .00001972 00000-0 15629-2 0 9998

TLE line 2: 2 32186 99.6097 33.8435 0274678 209.4403 173.7978 13.76498707625641

Live tracking on map

Real-time ground track for satellite FENGYUN 1C DEB.

In-orbit conjunctions

A list of the most updated potential collisions computed for object FENGYUN 1C DEB.

Target Orbit TCA Probability of collision Miss distance Type
FENGYUN 1C DEB SSO 2025-11-26 15:19:55 0.000139448 128.0 (m) DEBRIS
SS 1 LEO 2025-05-28 04:08:32 0.00117892 27.0 (m) PAYLOAD
SAPPHIRE LEO 2025-01-31 10:48:18 0.0005673223 773.0 (m) PAYLOAD

Associated space launch

Chinese polar orbiting meteorological satellite

FENGYUN 1C DEB was lifted into orbit during the mission ‘Long March 4B | Feng Yun 1C’, on board a Long March 4B space rocket.

The launch took place on May 10, 1999, 1:33 a.m. from Launch Complex 7.

For more information about the launch, click the button.

Launch to space Long March 4B | Feng Yun 1C
Long March 4B | Feng Yun 1C

Agency: N/A

Status: Launch Successful

Launch date: May 10, 1999, 1:33 a.m. UTC

Rocket: Long March 4B

Launch pad: Launch Complex 7

Location: Taiyuan Satellite Launch Center, People's Republic of China

...

Latest news about this satellite

There are no fresh news available about this satellite. Check back as we update our databases every day.


Newsletter sign-up

Weekly statistics, charts and insights to help you stay on top of the space industry.